Regional Weather Roundup
Issued by NWS

Home | Current Version | Previous Version | Graphics & Text | Print | Product List | Glossary On
Versions: 1 2 3 4 5 6 7 8 9 10 11 12 13 14 15 16 17 18 19 20 21 22 23 24 25 26 27 28 29 30 31 32 33 34 35 36 37 38 39 40 41 42 43 44 45 46 47 48 49 50
000
ASUS43 KLOT 010607
RWRIL

ILLINOIS REGIONAL WEATHER ROUNDUP
NATIONAL WEATHER SERVICE CHICAGO/ROMEOVILLE IL
100 AM CDT MON MAY 01 2017

NOTE: "FAIR" INDICATES FEW OR NO CLOUDS BELOW 12,000 FEET WITH NO
SIGNIFICANT WEATHER AND/OR OBSTRUCTIONS TO VISIBILITY.

* THESE STATIONS ARE NOT UNDER NWS QUALITY CONTROL. THEY ALSO MAY NOT
  REPORT WEATHER SUCH AS PRECIPITATION OR FOG.

ILZ001-002-007-009-015-016-024-010700-
NORTHWEST ILLINOIS

CITY           SKY/WX    TMP DP  RH WIND       PRES   REMARKS
MOLINE         CLOUDY    48  46  93 S7        29.48R
6HR MIN TEMP:  48; 6HR MAX TEMP:  54; 6HR PCP:  0.21;

STERLING*      CLOUDY    47  46  97 NE7       29.46F
SAVANNA*       CLOUDY    45  43  94 NE6       29.48F
$$

ILZ003-004-008-010-011-017-018-010700-
NORTH CENTRAL ILLINOIS

CITY           SKY/WX    TMP DP  RH WIND       PRES   REMARKS
ROCKFORD       LGT RAIN  47  44  90 E8        29.52F
6HR MIN TEMP:  44; 6HR MAX TEMP:  47; 6HR PCP:  0.55;

FREEPORT*      CLOUDY    43  42  97 NE12      29.51F
ROCHELLE*      DRIZZLE   47  47  99 NE10      29.47F
DE KALB*       CLOUDY    48  47  96 NE12      29.47F
PERU*          CLOUDY    50  49  97 NE6       29.46F FOG
$$

ILZ005-006-012>014-019>023-010700-
NORTHEAST ILLINOIS

CITY           SKY/WX    TMP DP  RH WIND       PRES   REMARKS
CHICAGO-OHARE  LGT RAIN  46  44  93 N8        29.52F
6HR MIN TEMP:  43; 6HR MAX TEMP:  47; 6HR PCP:  1.02;

CHICAGO-MIDWAY LGT RAIN  50  50 100 N8        29.51F
6HR MIN TEMP:  45; 6HR MAX TEMP:  52; 6HR PCP:  0.85;

AURORA         CLOUDY    49  48  97 NE17      29.47F
6HR MIN TEMP:  45; 6HR MAX TEMP:  50; 6HR PCP:  0.49;

LANSING*       HVY RAIN  57  57 100 CALM      29.52F
JOLIET*        LGT RAIN  59  57  92 S8        29.48F
WAUKEGAN       LGT RAIN  43  43 100 N8        29.53F
6HR MIN TEMP:  42; 6HR MAX TEMP:  43;

DUPAGE AIRPORT CLOUDY    46  46 100 NE8       29.48F
6HR MIN TEMP:  43; 6HR MAX TEMP:  47; 6HR PCP:  1.00;

KANKAKEE*      LGT RAIN  58  58  98 S17G35    29.52S
WHEELING       LGT RAIN  44  44 100 N7        29.53F
6HR MIN TEMP:  42; 6HR MAX TEMP:  44; 6HR PCP:  1.06;

MORRIS*        CLOUDY    57  56  96 SE7       29.44F
ROMEOVILLE*    LGT RAIN  55  55 100 SE8       29.49F
NORTHERLY ISL    N/A     52  51  97 CALM        N/A
$$

LMZ740>746-010700-
SOUTHERN LAKE MICHIGAN

STATION/POSITION SKY/WX   TEMP    WIND        PRES    VSBY  WAVE
                          AIR SEA DIR/SP/G                  HT/PER
                          (F)     (DEG/KT/KT) (MB)    (MI)  (FT/S)
SOUTHERN BUOY              42 41   60/ 21/ 25 1000.6          4/ 5
HARRISON CRIB              53                   N/A
BURNHAM HARBOR             52      CALM  / 22   N/A
CALUMET HARBOR                    150/  2/  3  999.0F
BURNS HARBOR               65     190/ 10/ 19 1000.0F
MICHIGAN CITY              66     180/ 13/ 15   N/A
MICHIGAN CITY 6N           59 48                N/A           3/ 6
ST. JOSEPH                 59 46  160/ 14/ 19  999.7          2/ 6
$$

ILZ025>027-034>036-040-047-049-050-058-095>099-010700-
WEST-CENTRAL ILLINOIS

CITY           SKY/WX    TMP DP  RH WIND       PRES   REMARKS
QUINCY         CLOUDY    51  43  74 W7        29.50F
GALESBURG*     CLOUDY    51  47  87 W10G17    29.48S
MACOMB*        CLOUDY    51  46  83 W12       29.51F
JACKSONVILLE*  CLOUDY    54  46  76 CALM      29.52F
PITTSFIELD*    CLOUDY    53  49  89 CALM      29.53S
$$

ILZ028>032-037-038-041>044-048-051>054-059>061-010700-
CENTRAL ILLINOIS

CITY           SKY/WX    TMP DP  RH WIND       PRES   REMARKS
PONTIAC        PTCLDY    63  58  84 S16G23    29.48S
BLOOMINGTON    CLEAR     59  55  87 S16       29.49S
DECATUR        CLEAR     60  53  77 SW21G28   29.51S
PEORIA         CLOUDY    57  55  93 W16G25    29.49R
6HR MIN TEMP:  54; 6HR MAX TEMP:  65; 6HR PCP:  0.47;

LACON*         FOG       50  50 100 W3        29.47R VSB 3/4
LINCOLN*       CLEAR     59  55  84 W8        29.49S
SPRINGFIELD    MOCLDY    58  51  78 W14       29.52R
6HR MIN TEMP:  58; 6HR MAX TEMP:  70; 6HR PCP:  0.06;

TAYLORVILLE    CLEAR     58  49  73 S20       29.52S
6HR MIN TEMP:  58; 6HR MAX TEMP:  67; 6HR PCP:  0.44;

$$

ILZ033-039-045-046-055>057-062-063-010700-
EAST-CENTRAL ILLINOIS

CITY           SKY/WX    TMP DP  RH WIND       PRES   REMARKS
CHAMPAIGN      MOCLDY    63  54  72 S23G30    29.52F
RANTOUL*       CLOUDY    65  55  69 SW16G22   29.51F
MATTOON        CLOUDY    62  51  67 SW14G23   29.54S
PARIS*         CLOUDY   N/A N/A N/A S20       29.57F
$$

ILZ079-100>102-010700-
SOUTHWEST ILLINOIS

CITY           SKY/WX    TMP DP  RH WIND       PRES   REMARKS
ALTON          CLOUDY    57  39  50 SW22G28   29.56R
BELLEVILLE     PTCLDY    57  50  76 SE5       29.56R
CAHOKIA*       PTCLDY    59  38  45 SW12G23   29.56R
$$

ILZ064>066-069>071-074>076-080>082-084>086-088>090-092>094-010700-
SOUTH-CENTRAL ILLINOIS

CITY           SKY/WX    TMP DP  RH WIND       PRES   REMARKS
CARBONDALE     CLEAR     55  46  71 S15       29.63S
6HR MIN TEMP:  55; 6HR MAX TEMP:  69; 6HR PCP:  0.07;

CAIRO*         CLEAR     57  47  68 S13G18    29.68F
EFFINGHAM*     PTCLDY    60  50  69 S16G25    29.59S
MARION         CLEAR     57  48  72 SW12G17   29.66R
MT. VERNON     PTCLDY    58  50  75 SW20G31   29.62R
CENTRALIA*     CLEAR     58  49  72 SW18G24   29.59S
SALEM*         CLEAR     60  49  67 S17G25    29.59S
METROPOLIS*    PTCLDY    59  47  64 SW10G17   29.69F
$$

ILZ067-068-072-073-078-083-087-091-010700-
SOUTHEAST ILLINOIS

CITY           SKY/WX    TMP DP  RH WIND       PRES   REMARKS
LAWRENCEVILLE  CLOUDY    62  57  83 SW17G24   29.61S
FLORA*         CLOUDY    61  52  71 SW12G25   29.61R
FAIRFIELD*     PTCLDY    59  52  76 SW9       29.62R
HARRISBURG*    CLEAR     58  50  74 SW21G26   29.66R
ROBINSON*      CLOUDY    61  55  80 SW21      29.60S
CARMI*         MOCLDY    60  52  76 SW17G25   29.64S
$$

ABBREVIATIONS USED IN REMARKS
   TC - TEMPERATURE IN CELSIUS
  WCI - WIND CHILL INDEX
   HX - HEAT INDEX
  VSB - VISIBILITY
$$





USA.gov is the U.S. government's official web portal to all federal, state and local government web resources and services.